FW8448 Weather Reports


Display with metric or nautical units.
time (UTC)temp
F
wind
direction
speed
MPH
gust
MPH
rain 1hr
in
rain 24hr
in
rain mn
in
humidity
%
barometer
mb
20260904170110 91 291 4.0 10.0 0.00 0.00 0.00 69 1016.7
20260904164631 91 269 3.0 15.0 0.00 0.00 0.00 69 1016.9
20260904163102 91 272 3.0 10.0 0.00 0.00 0.00 72 1016.8
20260904161600 91 293 3.0 12.0 0.00 0.00 0.00 71 1016.8
20260904160110 90 270 5.0 10.0 0.00 0.00 0.00 72 1016.8
20260904154605 89 285 2.0 11.0 0.00 0.00 0.00 74 1017.0
20260904153111 89 281 3.0 11.0 0.00 0.00 0.00 75 1016.8
20260904151600 88 281 2.0 10.0 0.00 0.00 0.00 75 1017.0
20260904144603 87 285 4.0 10.0 0.00 0.00 0.00 78 1016.8
20260904143102 85 281 1.0 8.0 0.00 0.00 0.00 80 1016.8
20260904141604 84 0 0.0 0.0 0.00 0.00 0.00 82 1016.7
20260904140107 83 0 0.0 0.0 0.00 0.00 0.00 87 1016.6
20260904134607 81 0 0.0 0.0 0.00 0.00 0.00 88 1016.5
20260904133110 80 0 0.0 0.0 0.00 0.00 0.00 91 1016.6
20260904131618 78 0 0.0 0.0 0.00 0.00 0.00 92 1016.7
20260904130118 77 0 0.0 0.0 0.00 0.00 0.00 94 1016.7
20260904124604 76 0 0.0 0.0 0.00 0.00 0.00 95 1016.7
20260904123106 74 0 0.0 0.0 0.00 0.00 0.00 96 1016.5
20260904121600 73 0 0.0 1.0 0.00 0.00 0.00 96 1016.5
20260904120104 72 0 0.0 0.0 0.00 0.00 0.00 96 1016.1
20260904114606 72 0 0.0 1.0 0.00 0.00 0.00 97 1016.0
20260904113100 72 0 0.0 0.0 0.00 0.00 0.00 96 1015.8
20260904111602 72 0 0.0 0.0 0.00 0.00 0.00 97 1015.6
20260904110111 72 0 0.0 0.0 0.00 0.00 0.00 97 1015.5
20260904104600 72 0 0.0 0.0 0.00 0.00 0.00 97 1015.4
20260904103059 72 0 0.0 0.0 0.00 0.00 0.00 97 1015.2
20260904101610 72 0 0.0 0.0 0.00 0.00 0.00 97 1015.3
20260904100109 71 0 0.0 0.0 0.00 0.00 0.00 97 1015.3
20260904094609 71 0 0.0 0.0 0.00 0.00 0.00 97 1015.3
20260904093059 71 0 0.0 1.0 0.00 0.00 0.00 97 1015.2
20260904091612 71 0 0.0 2.0 0.00 0.00 0.00 97 1015.1
20260904090101 71 0 0.0 2.0 0.00 0.00 0.00 97 1015.1
20260904084604 71 0 0.0 1.0 0.00 0.00 0.00 97 1015.1
20260904083106 72 0 0.0 0.0 0.00 0.00 0.00 97 1015.2
20260904081610 71 0 0.0 0.0 0.00 0.00 0.00 97 1015.2
20260904080059 71 0 0.0 0.0 0.00 0.00 0.00 97 1015.3
20260904074556 72 0 0.0 0.0 0.00 0.00 0.00 97 1015.5
20260904073115 72 0 0.0 0.0 0.00 0.00 0.00 97 1015.7
20260904071602 72 0 0.0 0.0 0.00 0.00 0.00 97 1015.7
20260904064556 72 0 0.0 0.0 0.00 0.00 0.00 97 1015.9
20260904063107 73 0 0.0 0.0 0.00 0.00 0.00 97 1016.0
20260904061557 73 0 0.0 0.0 0.00 0.00 0.00 96 1016.0
20260904060123 73 0 0.0 0.0 0.00 0.00 0.00 96 1016.2
20260904054635 73 0 0.0 0.0 0.00 0.00 0.00 96 1016.3
20260904053102 73 0 0.0 0.0 0.00 0.00 0.00 96 1016.2
20260904051601 74 0 0.0 0.0 0.00 0.00 0.00 96 1016.2
20260904050100 74 0 0.0 0.0 0.00 0.00 0.00 96 1016.3
20260904044605 74 0 0.0 0.0 0.00 0.00 0.00 96 1016.1
20260904043105 74 0 0.0 0.0 0.00 0.00 0.00 95 1016.0
20260904041607 75 0 0.0 0.0 0.00 0.00 0.00 95 1015.9
20260904040103 75 0 0.0 2.0 0.00 0.00 0.00 95 1015.8
20260904034604 76 0 0.0 1.0 0.00 0.00 0.00 94 1015.9
20260904033059 76 0 0.0 2.0 0.00 0.00 0.00 94 1015.8
20260904031606 76 0 0.0 0.0 0.00 0.00 0.00 93 1016.0
20260904030059 77 0 0.0 1.0 0.00 0.00 0.00 92 1016.1
20260904024557 78 0 0.0 2.0 0.00 0.00 0.00 91 1016.3
20260904023104 79 0 0.0 2.0 0.00 0.00 0.00 90 1016.4
20260904021605 78 46 3.0 9.0 0.00 0.00 0.00 92 1016.3
20260904020106 77 0 0.0 0.0 0.00 0.00 0.00 93 1016.2
20260904014621 77 0 0.0 0.0 0.00 0.00 0.00 93 1016.0
20260904013121 78 0 0.0 0.0 0.00 0.00 0.00 92 1015.9
20260904011602 78 0 0.0 0.0 0.00 0.00 0.00 91 1015.8
20260904010115 79 0 0.0 0.0 0.00 0.00 0.00 89 1015.6
20260904004618 80 0 0.0 0.0 0.00 0.00 0.00 88 1015.7
20260904003133 81 0 0.0 0.0 0.00 0.00 0.00 86 1015.4
20260904001602 82 0 0.0 0.0 0.00 0.00 0.00 84 1015.4
20260904000059 84 0 0.0 0.0 0.00 0.00 0.00 82 1015.2
20260903234557 87 0 0.0 0.0 0.00 0.00 0.00 80 1015.2
20260903233103 89 0 0.0 1.0 0.00 0.00 0.00 77 1015.2
20260903231600 88 206 0.0 2.0 0.00 0.00 0.00 76 1015.0
20260903230105 87 0 0.0 0.0 0.00 0.00 0.00 79 1014.9
20260903224601 89 0 0.0 3.0 0.00 0.00 0.00 74 1014.8
20260903223114 91 0 0.0 3.0 0.00 0.00 0.00 69 1014.8
20260903221559 92 242 0.0 3.0 0.00 0.00 0.00 70 1014.7
20260903220057 93 273 1.0 7.0 0.00 0.00 0.00 67 1014.6
20260903214556 93 232 3.0 10.0 0.00 0.00 0.00 66 1014.7
20260903213104 93 223 2.0 7.0 0.00 0.00 0.00 64 1014.5
20260903211611 94 251 3.0 8.0 0.00 0.00 0.00 64 1014.6
20260903210058 94 284 2.0 8.0 0.00 0.00 0.00 67 1014.5
20260903204556 94 268 2.0 6.0 0.00 0.00 0.00 65 1014.6
20260903203101 94 215 1.0 8.0 0.00 0.00 0.00 66 1014.7
20260903201603 93 275 4.0 8.0 0.00 0.00 0.00 64 1015.0
20260903194600 93 257 2.0 11.0 0.00 0.00 0.00 68 1015.5
20260903193107 93 219 2.0 11.0 0.00 0.00 0.00 65 1015.7
20260903191601 93 229 2.0 10.0 0.00 0.00 0.00 66 1016.0
20260903190106 93 200 3.0 11.0 0.00 0.00 0.00 68 1016.1
20260903184603 93 269 5.0 11.0 0.00 0.00 0.00 65 1016.2
20260903183107 93 253 2.0 9.0 0.00 0.00 0.00 68 1016.2
20260903181601 92 234 3.0 10.0 0.00 0.00 0.00 68 1016.2
20260903180110 92 208 2.0 10.0 0.00 0.00 0.00 69 1016.3
20260903174620 91 272 7.0 12.0 0.00 0.00 0.00 69 1016.6
20260903173110 91 275 4.0 11.0 0.00 0.00 0.00 71 1016.6
20260903171604 91 292 3.0 10.0 0.00 0.00 0.00 69 1016.8